User: anonymous   Login
Location: *
(51.0333°S, 178.4667°E)
Time: 01:42:01
(UTC+00:00)
Language:

S3M - Orbit

View from above orbital plane
View from above orbital plane
View from above satellite
View from above satellite

Ground track
Ground track

The orbit data is extracted from the following two-line orbital elements,

1 12508U 81053B   20020.99727870 -.00000002 +00000-0 -18002-4 0  9995
2 12508 082.9595 161.0674 0038596 076.8195 283.7264 13.76353890945621
Epoch (UTC): 20 January 2020 23:56:04
Eccentricity: 0.0038596
inclination: 82.9595°
perigee height: 948 km
apogee height: 1005 km
right ascension of ascending node: 161.0674°
argument of perigee: 76.8195°
revolutions per day: 13.76353890
mean anomaly at epoch: 283.7264°
orbit number at epoch: 94562

The dashed part of the orbit path shows where the satellite is in the earth's shadow,  

DLR